CAPE
253 875 1292 864 469 347 117 10 0 0 0 0 0 0 0 0 0 0 0 0 0 0
819 901 614 423 149 87 1 0 0 0 0 0 0 0 0 0 0 0 0 0 0 0
568 674 582 261 60 0 0 0 0 0 0 0 0 0 0 0 0 0 0 0 0 0
580 461 182 21 0 0 0 0 0 0 0 0 0 0 0 0 0 0 0 0 0 0
180 3 0 0 0 0 0 0 0 0 0 0 0 0 0 0 0 0 0 0 0 0
2 0 0 0 0 0 0 0 0 0 0 0 0 0 0 0 0 0 0 0 0 0
0 0 0 0 0 0 0 0 0 0 0 0 0 0 0 0 0 0 0 0 0 0
0 0 0 0 0 0 0 0 0 0 0 0 0 0 0 0 0 0 0 0 0 0
0 0 0 0 0 0 0 0 0 0 0 0 0 0 0 0 0 0 0 0 0 0
0 0 0 0 0 0 0 0 0 0 0 0 0 0 0 0 0 0 0 0 0 0
0 0 0 0 0 0 0 0 0 0 0 0 0 0 0 0 0 0 0 0 0 0
0 0 0 0 0 0 0 0 0 0 0 0 0 0 0 0 0 0 0 0 0 0
0 0 0 0 0 0 0 0 0 0 0 0 0 0 0 0 0 0 0 0 0 0
0 0 0 0 0 0 0 0 0 0 0 0 0 0 0 0 0 0 0 0 0 0
CIN
-165 -36 -80 -193 -237 -307 -297 -414 -0 -0 -0 -0 -0 -0 -0 -0 -0 -0 -0 -0 -0 -0
-9 -24 -131 -263 -312 -428 -223 -0 -0 -0 -0 -0 -0 -0 -0 -0 -0 -0 -0 -0 -0 -0
-92 -139 -269 -388 -477 -260 -0 -0 -0 -0 -0 -0 -0 -0 -0 -0 -0 -0 -0 -0 -0 -0
-173 -270 -418 -300 -0 -0 -0 -0 -0 -0 -0 -0 -0 -0 -0 -0 -0 -0 -0 -0 -0 -0
-297 -25 -0 -0 -0 -0 -0 -0 -0 -0 -0 -0 -0 -0 -0 -0 -0 -0 -0 -0 -0 -0
-0 -0 -0 -0 -0 -0 -0 -0 -0 -0 -0 -0 -0 -0 -0 -0 -0 -0 -0 -0 -0 -0
-0 -0 -0 -0 -0 -0 -0 -0 -0 -0 -0 -0 -0 -0 -0 -0 -0 -4 -0 -0 -0 -0
-0 -0 -0 -0 -0 -0 -0 -0 -0 -0 -0 -0 -0 -0 -0 -0 -0 -0 -0 -0 -0 -0
-0 -0 -0 -0 -0 -0 -0 -0 -0 -0 -0 -0 -0 -0 -0 -0 -0 -0 -0 -0 -0 -0
-0 -0 -0 -0 -0 -0 -0 -0 -0 -0 -0 -0 -0 -0 -0 -0 -0 -0 -0 -0 -0 -0
-0 -0 -0 -0 -0 -0 -0 -0 -0 -0 -0 -0 -0 -0 -0 -0 -0 -0 -0 -0 -0 -0
-0 -0 -0 -0 -0 -0 -0 -0 -0 -0 -0 -0 -0 -0 -0 -0 -0 -0 -0 -0 -0 -0
-0 -0 -0 -0 -0 -0 -0 -0 -0 -0 -0 -0 -0 -0 -0 -0 -0 -0 -0 -0 -0 -0
-0 -0 -0 -0 -0 -0 -0 -0 -0 -0 -0 -0 -0 -0 -0 -0 -0 -0 -0 -0 -0 -0
Wind_Speed
14 11 11 8 2 6 4 9 12 14 15 15 16 17 18 20 22 24 26 29 29 30
19 15 7 4 5 8 7 10 13 14 14 15 16 18 19 21 23 25 27 28 30 30
17 12 6 7 8 8 8 13 13 14 14 15 17 18 20 22 24 27 27 28 30 31
16 13 10 10 9 10 12 12 13 13 14 15 17 18 21 23 25 26 27 28 30 32
18 16 12 8 9 12 14 14 14 14 15 16 18 20 22 23 25 27 28 28 29 32
19 16 11 11 11 12 15 15 13 13 14 16 19 21 22 24 25 27 29 29 30 33
20 16 14 14 13 15 12 12 12 13 15 17 19 21 24 24 26 27 29 29 30 33
18 17 16 13 14 14 13 12 12 14 16 18 20 22 24 25 26 27 28 31 29 34
22 19 17 14 14 14 14 13 14 15 18 19 21 23 24 25 25 26 28 31 33 35
20 18 15 14 13 16 15 14 15 17 19 21 23 25 25 25 26 26 29 32 35 36
19 17 14 14 17 16 16 16 17 19 21 22 24 26 26 26 26 28 30 33 36 37
16 16 17 18 18 17 17 17 19 20 22 23 26 27 27 26 27 26 31 34 35 38
16 18 18 18 17 16 18 18 19 20 22 25 26 27 28 28 28 30 31 34 36 38
15 17 17 19 19 20 20 20 19 21 23 25 26 27 29 30 30 31 33 35 37 37
Wind_Direction
200 178 189 135 259 51 7 40 47 45 51 46 37 30 24 19 17 14 11 7 6 4
206 211 234 105 101 93 65 56 55 54 48 32 38 35 28 22 18 15 12 11 9 8
210 199 181 143 111 92 72 75 66 57 38 38 35 34 25 23 17 15 15 14 11 9
189 181 158 141 119 97 87 76 69 58 54 42 31 29 23 20 19 19 17 14 13 11
173 168 156 142 111 91 93 79 81 67 47 36 30 27 27 27 23 18 15 16 13 9
166 155 145 124 104 99 89 84 70 48 35 27 25 27 27 25 22 18 15 15 14 11
160 147 134 119 108 93 77 67 53 36 28 25 25 23 21 24 23 20 17 20 19 13
150 147 128 121 100 88 73 61 41 33 27 23 20 16 18 20 22 22 20 20 20 14
143 131 118 105 95 84 74 55 43 32 29 23 18 15 18 19 23 28 23 17 13 12
137 122 109 100 91 84 71 57 42 35 30 22 16 15 16 24 26 29 23 17 12 11
121 110 105 97 89 78 69 58 45 37 27 21 16 18 24 26 29 28 22 17 13 12
113 109 104 96 86 73 66 57 45 34 28 24 20 17 18 23 22 25 19 16 16 14
109 104 96 87 78 71 64 54 45 34 30 27 23 21 19 20 19 18 18 16 16 14
106 97 90 84 77 72 65 56 45 36 27 26 23 18 18 18 21 21 19 17 16 17